This demonstration page uses our WeatherBlox Daily Observations layout. Learn more.

Left ArrowRight Arrow

Hourly Observations for March 30, 2022

Temp ( °F °C ) Dew Point ( °F °C ) Humidity (%) Winds ( mph kmh ) Pressure ( in mb ) Visibility ( mi km ) Precip ( " mm )
12:59 am 00:59 Partly Cloudy 41 5 27 -2.8 57 57 VRB 5 7 30.27 1025 10 16 0.00 0.00
1:59 am 01:59 Mostly Cloudy 42 5.6 29 -1.7 60 60 S 3 6 30.26 1025 10 16 0.00 0.00
2:59 am 02:59 Mostly Cloudy 42 5.6 28 -2.2 58 58 S 5 7 30.26 1025 10 16 0.00 0.00
3:59 am 03:59 Cloudy 43 6.1 29 -1.7 58 58 S 3 6 30.25 1025 10 16 0.00 0.00
4:59 am 04:59 Cloudy 43 6.1 29 -1.7 58 58 Calm 30.25 1025 10 16 0.00 0.00
5:59 am 05:59 Cloudy 44 6.7 30 -1.1 58 58 ESE 5 7 30.25 1024 10 16 0.00 0.00
6:59 am 06:59 Cloudy 45 7.2 31 -0.6 58 58 SSE 8 13 30.24 1024 10 16 0.00 0.00
7:59 am 07:59 Mostly Cloudy 46 7.8 31 -0.6 56 56 SSE 5 7 30.26 1025 10 16 0.00 0.00
8:59 am 08:59 Mostly Cloudy 49 9.4 33 0.6 55 55 VRB 5 7 30.27 1025 10 16 0.00 0.00
9:59 am 09:59 Cloudy 52 11.1 31 -0.6 45 45 S 6 9 30.27 1025 10 16 0.00 0.00
10:59 am 10:59 Mostly Cloudy 55 12.8 31 -0.6 40 40 S 9 15 30.26 1025 10 16 0.00 0.00
11:59 am 11:59 Mostly Cloudy 58 14.4 27 -2.8 31 31 S 9 15 30.23 1024 10 16 0.00 0.00
12:59 pm 12:59 Mostly Cloudy 61 16.1 28 -2.2 29 29 S 13 20 30.20 1023 10 16 0.00 0.00
1:59 pm 13:59 Cloudy 62 16.7 27 -2.8 26 26 SSE 10 17 30.18 1022 10 16 0.00 0.00
2:59 pm 14:59 Mostly Cloudy 62 16.7 25 -3.9 24 24 SSW 9 15 30.15 1021 10 16 0.00 0.00
3:59 pm 15:59 Mostly Cloudy 62 16.7 30 -1.1 30 30 SSW 13 20 30.11 1020 10 16 0.00 0.00
4:59 pm 16:59 Cloudy 62 16.7 32 0 32 32 S 10 17 30.08 1019 10 16 0.00 0.00
5:59 pm 17:59 Mostly Cloudy 62 16.7 36 2.2 38 38 S 8 13 30.06 1018 10 16 0.00 0.00
6:59 pm 18:59 Mostly Cloudy 62 16.7 42 5.6 48 48 S 12 19 30.04 1017 10 16 0.00 0.00
7:59 pm 19:59 Mostly Cloudy 62 16.7 45 7.2 54 54 S 9 15 30.01 1016 10 16 0.00 0.00
8:59 pm 20:59 Mostly Cloudy 61 16.1 47 8.3 60 60 S 12 19 30.01 1016 10 16 0.00 0.00
9:59 pm 21:59 Mostly Cloudy 62 16.7 51 10.6 67 67 S 10 17 30.00 1016 10 16 0.00 0.00
10:06 pm 22:06 Cloudy 63 17.2 52 11.1 68 68 S 9 15 30.00 1016 10 16 0.00 0.00
10:59 pm 22:59 Cloudy 63 17.2 56 13.3 78 78 SSW 8 13 29.99 1016 10 16 0.00 0.00
11:10 pm 23:10 Mostly Cloudy 64 17.8 56 13.3 75 75 S 12 19 29.99 1016 10 16 0.00 0.00
11:59 pm 23:59 Mostly Cloudy 64 17.8 57 13.9 78 78 undefined N/A 29.98 1015 10 16 0.00 0.00

Powered by AerisWeather